Погода в Палм Бич

США     26°41′34″N   80°02′11″W
темп.,
°C
ветер,
м/с
пор.,
м/с
влажн.,
%
обл.,
%
осадки,
мм/ч
давл.,
гПа
погр.,
м
16 октября, сб
сб1623:00+27св236675 0.0 1014619
02:00+26св116898 0.1 1013449
05:00+26сз117278 0.3 1013234
08:00+25зсз33766 0.8 1014268
11:00+28ссз46583 0.3 10151118
14:00+29ссв66542 0.3 10121346
17:00+28ссв665611 0.0 10121103
20:00+27ссв45625 0.0 1014621
17 октября, вс
вс1723:00+27ссв34615 0.0 1014484
02:00+26с11620 0.0 1013266
05:00+26сз346724 0.0 1013352
08:00+25сз35707 0.0 1014261
11:00+28с456671 0.0 1015959
14:00+28с676834 2.1 10141104
17:00+28с776424 0.3 10131191
20:00+26ссв897479 0.6 1015960
18 октября, пн
пн1823:00+26ссв897090 0.6 10161141
02:00+26ссв886591 0.6 10161079
05:00+25ссв776012 0.0 10161154
08:00+25св775811 0.0 10171432
11:00+26св775393 0.0 10181597
14:00+26всв6652100 0.0 10171629
17:00+26св76535 0.0 10161683
20:00+25св67555 0.0 10171650
19 октября, вт
вт1923:00+25всв675630 0.0 10181437
02:00+25всв565413 0.0 10181198
05:00+25всв665595 0.0 10181206
08:00+25всв6756100 0.0 10191395
11:00+26всв785596 0.0 10201580
14:00+26в7754100 0.1 10191670
17:00+25всв7863100 0.1 10181098
20:00+26всв6753100 0.1 10201763
20 октября, ср
ср2023:00+25в786392 0.1 10201081
02:00+25в6771100 0.4 10201062
05:00+26в6759100 0.3 10201121
08:00+26в565898 0.3 10211240
11:00+26в676379 0.2 10221297
14:00+27в765796 0.3 10201516
17:00+27всв675870 0.1 10191304
20:00+26в7760100 0.2 10201068